Regional Weather Roundup
Issued by NWS

Home | Current Version | Previous Version | Graphics & Text | Print | Product List | Glossary On
Versions: 1 2 3 4 5 6 7 8 9 10 11 12 13 14 15 16 17 18 19 20 21 22 23 24 25 26 27 28 29 30 31 32 33 34 35 36 37 38 39 40 41 42 43 44 45 46 47 48 49 50
000
ASUS43 KMPX 270110
RWRMN
WEATHER ROUNDUP FOR MINNESOTA
NATIONAL WEATHER SERVICE TWIN CITIES/CHANHASSEN MN
700 PM CST FRI DEC 26 2014


NOTE: "FAIR" INDICATES FEW OR NO CLOUDS BELOW 12,000 FEET WITH NO
SIGNIFICANT WEATHER AND/OR OBSTRUCTIONS TO VISIBILITY. N/A MEANS
CURRENT SKY AND/OR WEATHER CONDITIONS ARE NOT AVAILABLE.

MNZ060>063-068>070-270200-
   Twin Cities Metro

CITY           SKY/WX    TMP DP  RH WIND       PRES   REMARKS
TWIN CITIES    CLOUDY    31  23  72 N8        30.09R WCI  23
ST PAUL        CLOUDY    31  25  78 N9        30.10R WCI  23
CRYSTAL        CLOUDY    32  25  75 N5        30.08R WCI  27
BLAINE         CLOUDY    30  28  93 N5        30.09R WCI  25
LAKEVILLE      CLOUDY    28  27  93 N6        30.07S WCI  22
EDEN PRAIRIE   FLURRIES  31  24  75 N8        30.07R WCI  23
SOUTH ST PAUL  LGT SNOW  32  26  78 N6        30.08R WCI  26
LAKE ELMO      CLOUDY    32  28  86 N5        30.09R WCI  27
$$
MNZ001>005-007-008-013>017-022>024-027-028-270200-
   Northwest Minnesota

CITY           SKY/WX    TMP DP  RH WIND       PRES   REMARKS
BEMIDJI        CLOUDY    21  15  78 NW9       30.13R WCI  10
HALLOCK        FLURRIES  10   7  85 NW9       30.24R WCI  -2
ROSEAU         FLURRIES  16  10  79 NW5       30.18S WCI   9
WARROAD        FLURRIES  16  10  79 NW9       30.18S WCI   4
THIEF RVR FALL CLOUDY    12  10  92 NW9       30.19S WCI   0
CROOKSTON      CLOUDY    10   7  85 NW12      30.24R WCI  -4
FOSSTON        FLURRIES  16  12  86 NW8       30.17R WCI   5
DETROIT LAKES  CLOUDY    21  19  93 N14       30.15S WCI   8
MOORHEAD       LGT SNOW  19  18  93 NW14      30.21S WCI   6
PARK RAPIDS    CLOUDY    23  15  71 N10       30.12R WCI  12
MAHNOMEN       FLURRIES  18  13  81 NW9       30.17R WCI   7
$$
MNZ006-009>011-018-025>026-270200-
   North Central Minnesota

CITY           SKY/WX    TMP DP  RH WIND       PRES   REMARKS
BAUDETTE       CLOUDY    17  11  77 N7        30.15S WCI   8
FLAG ISLAND    CLOUDY    12   7  79 NW12      30.18R WCI  -2
INTL FALLS     CLOUDY    19  12  74 NW8       30.13S WCI   9
WASKISH        CLOUDY    19  16  86 CALM      30.14S
BIG FORK       CLOUDY    21  16  79 CALM      30.12S
LONGVILLE      CLOUDY    21  16  79 CALM      30.13R
GRAND RAPIDS   CLOUDY    21  16  79 N8        30.11R WCI  12
CRANE LAKE     CLOUDY    19  16  86 N3        30.14R
ORR            CLOUDY    21  16  79 NW6       30.08S WCI  14
COOK           CLOUDY    21  18  86 NW5       30.10S WCI  15
WALKER         CLOUDY    21  15  75 N3        30.13R
$$
MNZ012-019>021-037-270200-
   Northeast Minnesota

CITY           SKY/WX    TMP DP  RH WIND       PRES   REMARKS
DULUTH         CLOUDY    27  20  75 N6        30.07R WCI  20
ELY            CLOUDY    23  18  80 CALM      30.08S
HIBBING        CLOUDY    23  16  74 NW12      30.09S WCI  12
EVELETH        MOCLDY    27  19  74 N6        30.09F WCI  20
DULUTH HARBOR  CLOUDY    30  25  80 N10       30.12S WCI  21
TWO HARBORS    MOCLDY    30  25  80 NW3       30.06S
SILVER BAY     CLOUDY    30  21  69 N3        30.06F
GRAND MARAIS     N/A     30  21  69 N8        30.09R WCI  22
G MARAIS ARPRT CLOUDY    23  18  80 CALM      30.04S
$$
MNZ029>031-032-039>041-046>048-054>057-064-270200-
   West Central Minnesota

CITY           SKY/WX    TMP DP  RH WIND       PRES   REMARKS
FERGUS FALLS   CLOUDY    21  16  79 N12G21    30.20R WCI   9
WHEATON        CLOUDY    21  16  79 NW15      30.20R WCI   8
MORRIS         MOCLDY    25  19  80 N14       30.14S WCI  13
ALEXANDRIA     CLOUDY    24  18  77 N9        30.12R WCI  14
ELBOW LAKE     CLOUDY    23  18  83 N10       30.15R WCI  12
WADENA         CLOUDY    21  18  86 N6        30.12S WCI  14
GLENWOOD       CLOUDY    25  19  80 N9        30.12S WCI  15
APPLETON       CLOUDY    27  21  80 N15       30.15S WCI  15
BENSON         CLOUDY    25  21  86 N8        30.13F WCI  16
ORTONVILLE     CLOUDY    23  18  80 N15       30.16R WCI  10
MADISON        CLOUDY    28  23  80 N14       30.14S WCI  17
WILLMAR        CLOUDY    28  21  74 N9        30.13R WCI  20
$$
MNZ033>034-036-042>043-049>051-058-059-270200-
   Central Minnesota

CITY           SKY/WX    TMP DP  RH WIND       PRES   REMARKS
ST CLOUD       CLOUDY    30  20  66 N7        30.10R WCI  23
SAUK CENTRE    CLOUDY    25  19  78 N6        30.11S WCI  18
PAYNESVILLE    CLOUDY    24  20  85 NW8       30.11R WCI  15
AITKIN         CLOUDY    27  19  74 N8        30.10R WCI  18
PINE RIVER     CLOUDY    21  16  79 N7        30.16R WCI  13
BRAINERD       CLOUDY    23  17  78 N14       30.12R WCI  11
STAPLES        CLOUDY    23  16  74 N7        30.13R WCI  15
LONG PRAIRIE   CLOUDY    25  19  80 N8        30.11S WCI  16
LITTLE FALLS   CLOUDY    27  19  74 N3        30.12R
LITCHFIELD     CLOUDY    28  25  86 N6        30.11R WCI  22
BUFFALO        CLOUDY    29  24  81 N9        30.11R WCI  20
MAPLE LAKE     CLOUDY    29  25  85 N9        30.10R WCI  21
$$
MNZ037-044-045-052-053-270200-
   East Central Minnesota

CITY           SKY/WX    TMP DP  RH WIND       PRES   REMARKS
PRINCETON      CLOUDY    28  25  86 N7        30.10R WCI  21
MORA           CLOUDY    28  21  74 VRB5      30.10S WCI  23
CAMBRIDGE      CLOUDY    30  21  69 N8        30.07R WCI  23
RUSH CITY      CLOUDY    29  24  80 N10       30.08S WCI  20
MOOSE LAKE     CLOUDY    28  21  74 N7        30.08R WCI  21
HINCKLEY       CLOUDY    30  23  74 CALM      30.09S
CLOQUET        CLOUDY    27  19  74 N7        30.08S WCI  19
MCGREGOR       CLOUDY    27  19  74 N8        30.10R WCI  18
$$
MNZ071>073-080-081-089-090-097-098-270200-
   Southwest Minnesota

CITY           SKY/WX    TMP DP  RH WIND       PRES   REMARKS
MONTEVIDEO     CLOUDY    25  21  86 NE12      30.14S WCI  14
GRANITE FALLS  CLOUDY    26  22  86 NW9       30.14S WCI  16
CANBY          CLOUDY    24  21  89 NW13      30.14F WCI  12
MARSHALL       CLOUDY    25  19  80 N14       30.11S WCI  13
REDWOOD FALLS  LGT SNOW  27  25  92 N6        30.11S VSB 1   WCI  20
OLIVIA         LGT SNOW  28  27  93 N7        30.11R WCI  21
PIPESTONE      LGT SNOW  23  21  93 N8        30.07S WCI  14
WINDOM         LGT SNOW  27  25  93 N15       30.05F WCI  15
WORTHINGTON    CLOUDY    25 -20  13 N15       30.05S WCI  12
JACKSON        FLURRIES  28  27  93 VRB12     30.03F WCI  18
TRACY          LGT SNOW  26  25  96 N9        30.10S WCI  17
SLAYTON        LGT SNOW  24  23  95 N10       30.07S WCI  13
$$
MNZ065>067-074>077-082>085-091>093-270200-
   South Central Minnesota

CITY           SKY/WX    TMP DP  RH WIND       PRES   REMARKS
MANKATO        CLOUDY    30  25  80 N12       30.06S WCI  21
NEW ULM        LGT SNOW  28  27  93 N5        30.09R WCI  23
ST JAMES       FLURRIES  28  27  93 N13       30.07F WCI  18
FAIRMONT       CLOUDY    30  25  80 N17       30.03S WCI  18
GLENCOE        LGT SNOW  30  28  90 N9        30.09R WCI  22
FARIBAULT      FLURRIES  30  27  86 N7        30.05F WCI  23
OWATONNA       CLOUDY    30  27  86 N10       30.04S WCI  21
WASECA         CLOUDY    32  28  86 N10       30.05F WCI  24
ALBERT LEA     CLOUDY    30  30 100 N13       30.01S FOG     WCI  20
$$
MNZ078>079-086>088-094>096-270200-
   Southeast Minnesota

CITY           SKY/WX    TMP DP  RH WIND       PRES   REMARKS
ROCHESTER      CLOUDY    32  29  88 N13       30.01F WCI  22
RED WING       FLURRIES  34  28  80 N6        30.06R WCI  29
STANTON        LGT SNOW  32  28  86 N9        30.05F WCI  24
DODGE CENTER   CLOUDY    30  30 100 N10       30.01F WCI  21
WINONA         CLOUDY    36  32  87 NW7       30.04S
AUSTIN         CLOUDY    30  30 100 N7        30.01R WCI  23
PRESTON        CLOUDY    32  31  94 N7        30.00S FOG     WCI  26
$$
ABBREVIATIONS USED IN REMARKS
   TC - TEMPERATURES IN CELSIUS
  WCI - WIND CHILL INDEX
   HX - HEAT INDEX
  VSB - VISIBILITY
$$


USA.gov is the U.S. government's official web portal to all federal, state and local government web resources and services.